Location: Unspecified
(52.0000°N, 4.4000°E)
Time: 06:39:56
(UTC+00:00)

Cosmos 1821 Rocket - Pass Details

Date: 14 May 2025
Orbit: 943 x 1004 km, 82.9° (Epoch: 14 June)

Event Time Altitude Azimuth Distance (km) Brightness Sun altitude
Rises 21:52:43 0° 350° (N) 3,658 8.5 -15.5°
Reaches altitude 10° 21:55:16 10° 353° (N) 2,700 7.5 -15.6°
Maximum altitude 22:01:26 72° 78° (ENE) 1,001 4.0 -16.0°
Enters shadow 22:05:08 25° 158° (SSE) 1,813 4.8 -16.3°
